AEROCUBE 7B

Last updated on Fri Feb 15 2019 03:06:12 GMT+0000 (Coordinated Universal Time)

1 43042U 17071F 19044.90877110 .00003157 00000-0 86788-4 0 9997 2 43042 51.6389 302.6050 0005431 67.9829 292.1732 15.40362949 66840

Satellite not in orbit

AEROCUBE 7B